TimeCST,TemperatureF,Dew PointF,Humidity,Sea Level PressureIn,VisibilityMPH,Wind Direction,Wind SpeedMPH,Gust SpeedMPH,PrecipitationIn,Events,Conditions,WindDirDegrees,DateUTC
12:13 AM,28.9,27.9,96,29.96,1.0,East,9.2,-,0.02,Snow,Snow,100,2012-12-09 06:13:00
12:33 AM,28.9,27.9,96,29.95,1.2,East,10.4,-,0.02,Snow,Light Snow,90,2012-12-09 06:33:00
12:53 AM,28.9,27.7,95,29.94,1.2,East,9.2,-,0.02,Snow,Snow,90,2012-12-09 06:53:00
1:13 AM,28.9,27.7,95,29.93,1.2,East,10.4,-,N/A,Snow,Light Snow,90,2012-12-09 07:13:00
1:33 AM,28.9,27.9,96,29.93,1.5,East,10.4,-,0.01,Snow,Light Snow,90,2012-12-09 07:33:00
1:53 AM,28.9,27.5,94,29.92,1.2,East,10.4,-,0.01,Snow,Light Snow,90,2012-12-09 07:53:00
2:13 AM,28.9,27.9,96,29.91,1.2,East,11.5,-,N/A,Snow,Light Snow,90,2012-12-09 08:13:00
2:33 AM,29.1,28.0,96,29.92,1.0,East,9.2,-,0.02,Snow,Snow,90,2012-12-09 08:33:00
2:53 AM,29.1,28.0,96,29.92,1.0,East,10.4,-,0.02,Snow,Snow,90,2012-12-09 08:53:00
3:13 AM,29.1,28.0,96,29.91,1.0,East,11.5,-,N/A,Snow,Snow,90,2012-12-09 09:13:00
3:34 AM,28.9,27.9,96,29.91,1.0,East,11.5,-,N/A,Snow,Snow,90,2012-12-09 09:34:00
3:53 AM,29.1,28.0,96,29.90,1.0,East,11.5,-,N/A,Snow,Snow,90,2012-12-09 09:53:00
4:13 AM,29.1,28.0,96,29.89,1.0,East,11.5,17.3,N/A,Snow,Snow,100,2012-12-09 10:13:00
4:33 AM,29.3,28.2,96,29.89,1.0,East,12.7,-,0.02,Snow,Snow,90,2012-12-09 10:33:00
4:54 AM,29.3,28.2,96,29.90,0.8,East,12.7,-,0.02,Snow,Snow,90,2012-12-09 10:54:00
5:13 AM,29.1,28.0,96,29.89,1.2,East,9.2,-,N/A,Snow,Light Snow,90,2012-12-09 11:13:00
5:33 AM,29.1,27.9,95,29.89,1.5,East,8.1,-,N/A,Snow,Light Snow,90,2012-12-09 11:33:00
5:54 AM,28.9,27.7,95,29.89,1.5,East,11.5,-,N/A,Snow,Light Snow,90,2012-12-09 11:54:00
6:13 AM,28.9,27.7,95,29.89,1.2,ENE,10.4,-,N/A,Snow,Light Snow,70,2012-12-09 12:13:00
6:33 AM,28.9,27.5,94,29.88,1.8,ENE,9.2,-,N/A,Snow,Light Snow,70,2012-12-09 12:33:00
6:53 AM,28.9,27.5,94,29.90,2.0,ENE,8.1,-,N/A,Snow,Light Snow,70,2012-12-09 12:53:00
7:13 AM,28.9,27.5,94,29.90,1.5,ENE,9.2,-,N/A,Snow,Light Snow,70,2012-12-09 13:13:00
7:33 AM,28.9,27.5,94,29.89,1.0,ENE,9.2,-,N/A,Snow,Snow,60,2012-12-09 13:33:00
7:53 AM,28.9,27.5,94,29.90,1.0,ENE,10.4,-,N/A,Snow,Snow,70,2012-12-09 13:53:00
8:13 AM,29.1,27.7,94,29.90,0.8,NE,8.1,-,N/A,Snow,Light Snow,50,2012-12-09 14:13:00
8:33 AM,29.1,28.0,96,29.90,0.5,NE,10.4,-,0.01,Snow,Light Snow,50,2012-12-09 14:33:00
8:53 AM,29.1,28.0,96,29.90,0.8,ENE,10.4,-,0.01,Snow,Light Snow,60,2012-12-09 14:53:00
9:33 AM,29.3,28.2,96,29.90,0.8,NE,10.4,-,N/A,Snow,Light Snow,40,2012-12-09 15:33:00
9:53 AM,29.1,28.2,96,29.91,0.8,NE,11.5,-,N/A,Snow,Light Snow,40,2012-12-09 15:53:00
10:13 AM,28.9,27.9,96,29.91,0.8,NE,9.2,17.3,N/A,Snow,Light Snow,40,2012-12-09 16:13:00
10:33 AM,28.9,27.5,94,29.91,1.5,NE,9.2,16.1,N/A,Snow,Light Snow,40,2012-12-09 16:33:00
10:53 AM,28.8,27.5,95,29.90,1.2,NNE,9.2,17.3,N/A,Snow,Light Snow,30,2012-12-09 16:53:00
11:13 AM,28.8,27.5,95,29.90,1.2,NE,10.4,-,N/A,Snow,Light Snow,40,2012-12-09 17:13:00
11:33 AM,28.8,27.3,94,29.89,1.5,NNE,10.4,-,N/A,Snow,Light Snow,30,2012-12-09 17:33:00
11:53 AM,28.4,27.1,95,29.88,1.0,NNE,11.5,17.3,N/A,Snow,Light Snow,30,2012-12-09 17:53:00
12:13 PM,28.4,27.1,95,29.87,0.8,NNE,13.8,-,N/A,Snow,Light Snow,20,2012-12-09 18:13:00
12:34 PM,28.2,26.8,94,29.87,0.5,NNE,15.0,20.7,N/A,Snow,Snow,20,2012-12-09 18:34:00
12:53 PM,27.9,26.4,94,29.86,0.5,NNE,18.4,-,N/A,Snow,Snow,20,2012-12-09 18:53:00
1:13 PM,27.9,26.2,94,29.86,0.8,NNE,19.6,-,N/A,Snow,Light Snow,20,2012-12-09 19:13:00
1:33 PM,27.9,26.2,94,29.85,0.8,North,18.4,25.3,N/A,Snow,Light Snow,10,2012-12-09 19:33:00
1:53 PM,27.5,25.9,94,29.86,0.8,North,16.1,26.5,N/A,Snow,Light Snow,10,2012-12-09 19:53:00
2:13 PM,26.4,24.3,92,29.86,0.8,North,16.1,26.5,N/A,Snow,Light Snow,360,2012-12-09 20:13:00
2:33 PM,25.2,22.8,91,29.86,0.8,North,17.3,25.3,N/A,Snow,Light Snow,360,2012-12-09 20:33:00
2:53 PM,24.6,22.3,91,29.87,0.8,North,15.0,27.6,N/A,Snow,Light Snow,10,2012-12-09 20:53:00
3:13 PM,23.9,21.7,91,29.88,0.8,North,16.1,23.0,N/A,Snow,Light Snow,360,2012-12-09 21:13:00
3:33 PM,23.0,20.8,91,29.89,0.8,North,17.3,23.0,N/A,Snow,Light Snow,360,2012-12-09 21:33:00
3:53 PM,21.9,20.1,93,29.90,0.5,North,12.7,23.0,N/A,Snow,Light Snow,360,2012-12-09 21:53:00
4:13 PM,21.2,19.0,91,29.91,0.5,North,12.7,26.5,N/A,Snow,Light Snow,360,2012-12-09 22:13:00
4:33 PM,20.7,18.5,91,29.92,0.8,North,16.1,26.5,N/A,Snow,Light Snow,360,2012-12-09 22:33:00
4:53 PM,20.3,18.1,91,29.93,1.8,North,17.3,23.0,N/A,Snow,Light Snow,360,2012-12-09 22:53:00
5:13 PM,20.3,18.0,91,29.94,1.5,North,17.3,23.0,N/A,Snow,Light Snow,360,2012-12-09 23:13:00
5:33 PM,19.4,17.1,91,29.95,2.0,NNW,12.7,19.6,N/A,Snow,Light Snow,340,2012-12-09 23:33:00
5:53 PM,19.2,16.7,90,29.95,2.0,North,15.0,20.7,N/A,Snow,Light Snow,350,2012-12-09 23:53:00
6:13 PM,18.5,16.3,91,29.96,1.8,North,16.1,20.7,N/A,Snow,Light Snow,350,2012-12-10 00:13:00
6:33 PM,18.3,15.8,90,29.97,2.0,North,15.0,23.0,N/A,Snow,Light Snow,350,2012-12-10 00:33:00
6:53 PM,17.8,15.3,90,29.97,2.5,North,11.5,19.6,N/A,Snow,Light Snow,350,2012-12-10 00:53:00
7:13 PM,17.2,14.5,89,29.98,3.0,North,11.5,17.3,N/A,Snow,Light Snow,350,2012-12-10 01:13:00
7:33 PM,16.7,14.0,89,29.98,3.0,North,12.7,23.0,N/A,Snow,Light Snow,350,2012-12-10 01:33:00
8:14 PM,16.2,12.9,87,29.99,4.0,North,11.5,21.9,N/A,Snow,Light Snow,350,2012-12-10 02:14:00
8:33 PM,15.6,12.2,86,29.99,4.0,North,10.4,21.9,N/A,Snow,Light Snow,350,2012-12-10 02:33:00
8:53 PM,15.1,11.3,85,30.00,7.0,NNW,13.8,23.0,N/A,Snow,Light Snow,340,2012-12-10 02:53:00
9:12 PM,14.4,10.2,84,30.00,10.0,NNW,10.4,21.9,N/A,,Overcast,340,2012-12-10 03:12:00
9:33 PM,13.5,9.3,84,30.00,10.0,NNW,13.8,19.6,N/A,,Overcast,340,2012-12-10 03:33:00
9:53 PM,13.1,8.6,82,30.01,10.0,NNW,4.6,-,N/A,,Overcast,330,2012-12-10 03:53:00
10:13 PM,12.2,8.1,83,30.01,7.0,NW,10.4,16.1,N/A,,Overcast,320,2012-12-10 04:13:00
10:33 PM,12.0,7.9,83,30.00,7.0,NW,9.2,-,N/A,,Overcast,320,2012-12-10 04:33:00
10:53 PM,10.8,6.4,83,30.00,7.0,NW,11.5,18.4,N/A,,Overcast,320,2012-12-10 04:53:00
11:13 PM,9.7,5.2,82,30.00,10.0,NW,10.4,-,N/A,Snow,Light Snow,320,2012-12-10 05:13:00
11:33 PM,8.6,3.9,81,30.00,10.0,NNW,10.4,16.1,N/A,Snow,Light Snow,340,2012-12-10 05:33:00
11:54 PM,7.7,2.8,81,30.00,10.0,NW,10.4,-,N/A,,Clear,320,2012-12-10 05:54:00